| time (UTC) | temp C | wind direction | speed KPH | gust KPH | rain 1hr cm | rain 24hr cm | rain mn cm | humidity % | barometer mb |
| 20260507222527 | 15 | 0 | 0.0 | 1.6 | 0.00 | 0.00 | 0.00 | 82 | 1013.8 |
| 20260507222025 | 15 | 0 | 0.0 | 1.6 | 0.00 | 0.00 | 0.00 | 81 | 1013.9 |
| 20260507221542 | 15 | 0 | 0.0 | 3.2 | 0.00 | 0.00 | 0.00 | 81 | 1013.7 |
| 20260507221025 | 15 | 0 | 0.0 | 6.4 | 0.00 | 0.00 | 0.00 | 81 | 1013.7 |
| 20260507220525 | 15 | 134 | 1.6 | 6.4 | 0.00 | 0.00 | 0.00 | 81 | 1013.8 |
| 20260507220040 | 15 | 134 | 1.6 | 11.3 | 0.00 | 0.00 | 0.00 | 82 | 1013.7 |
| 20260507215526 | 15 | 134 | 4.8 | 11.3 | 0.00 | 0.00 | 0.00 | 82 | 1013.8 |
| 20260507215025 | 15 | 141 | 6.4 | 11.3 | 0.00 | 0.00 | 0.00 | 83 | 1013.8 |
| 20260507214551 | 15 | 134 | 4.8 | 6.4 | 0.00 | 0.00 | 0.00 | 82 | 1013.8 |
| 20260507214025 | 15 | 134 | 4.8 | 6.4 | 0.00 | 0.00 | 0.00 | 81 | 1013.7 |
| 20260507213529 | 16 | 136 | 1.6 | 6.4 | 0.00 | 0.00 | 0.00 | 80 | 1013.7 |
| 20260507213043 | 16 | 136 | 1.6 | 12.9 | 0.00 | 0.00 | 0.00 | 81 | 1013.8 |
| 20260507212526 | 16 | 136 | 3.2 | 12.9 | 0.00 | 0.00 | 0.00 | 81 | 1013.7 |
| 20260507212026 | 16 | 137 | 6.4 | 12.9 | 0.00 | 0.00 | 0.00 | 81 | 1013.7 |
| 20260507211542 | 16 | 126 | 6.4 | 12.9 | 0.00 | 0.00 | 0.00 | 81 | 1013.7 |
| 20260507211026 | 16 | 138 | 6.4 | 11.3 | 0.00 | 0.00 | 0.00 | 81 | 1013.9 |
| 20260507210526 | 16 | 132 | 4.8 | 11.3 | 0.00 | 0.00 | 0.00 | 81 | 1013.8 |
| 20260507210050 | 16 | 127 | 4.8 | 8.0 | 0.00 | 0.00 | 0.00 | 82 | 1013.7 |
| 20260507205526 | 16 | 127 | 4.8 | 8.0 | 0.00 | 0.00 | 0.00 | 82 | 1013.7 |
| 20260507205029 | 16 | 127 | 3.2 | 6.4 | 0.00 | 0.00 | 0.00 | 82 | 1013.8 |
| 20260507204541 | 16 | 126 | 3.2 | 4.8 | 0.00 | 0.00 | 0.00 | 81 | 1013.8 |
| 20260507204025 | 16 | 126 | 1.6 | 4.8 | 0.00 | 0.00 | 0.00 | 81 | 1013.7 |
| 20260507203526 | 16 | 126 | 3.2 | 4.8 | 0.00 | 0.00 | 0.00 | 81 | 1013.8 |
| 20260507203101 | 16 | 126 | 3.2 | 11.3 | 0.00 | 0.00 | 0.00 | 80 | 1013.8 |
| 20260507202525 | 16 | 126 | 4.8 | 12.9 | 0.00 | 0.00 | 0.00 | 81 | 1013.7 |
| 20260507202025 | 16 | 126 | 4.8 | 12.9 | 0.00 | 0.00 | 0.00 | 81 | 1013.7 |
| 20260507201554 | 16 | 115 | 6.4 | 12.9 | 0.00 | 0.00 | 0.00 | 81 | 1013.7 |
| 20260507201026 | 16 | 103 | 4.8 | 11.3 | 0.00 | 0.00 | 0.00 | 80 | 1013.7 |
| 20260507200527 | 16 | 93 | 4.8 | 9.7 | 0.00 | 0.00 | 0.00 | 80 | 1013.6 |
| 20260507200104 | 17 | 111 | 1.6 | 12.9 | 0.00 | 0.00 | 0.00 | 80 | 1013.6 |
| 20260507195526 | 17 | 111 | 4.8 | 12.9 | 0.00 | 0.00 | 0.00 | 80 | 1013.6 |
| 20260507195027 | 17 | 111 | 6.4 | 12.9 | 0.00 | 0.00 | 0.00 | 80 | 1013.6 |
| 20260507194543 | 17 | 121 | 6.4 | 12.9 | 0.00 | 0.00 | 0.00 | 80 | 1013.7 |
| 20260507194026 | 17 | 142 | 3.2 | 12.9 | 0.00 | 0.00 | 0.00 | 81 | 1013.6 |
| 20260507193527 | 17 | 159 | 1.6 | 12.9 | 0.00 | 0.00 | 0.00 | 80 | 1013.5 |
| 20260507193046 | 17 | 116 | 3.2 | 6.4 | 0.00 | 0.00 | 0.00 | 80 | 1013.5 |
| 20260507192528 | 17 | 114 | 3.2 | 6.4 | 0.00 | 0.00 | 0.00 | 80 | 1013.5 |
| 20260507192029 | 17 | 113 | 1.6 | 4.8 | 0.00 | 0.00 | 0.00 | 80 | 1013.4 |
| 20260507191540 | 17 | 113 | 1.6 | 6.4 | 0.00 | 0.00 | 0.00 | 79 | 1013.4 |
| 20260507191027 | 17 | 113 | 1.6 | 6.4 | 0.00 | 0.00 | 0.00 | 79 | 1013.3 |
| 20260507190529 | 17 | 113 | 3.2 | 11.3 | 0.00 | 0.00 | 0.00 | 79 | 1013.3 |
| 20260507190042 | 17 | 112 | 3.2 | 12.9 | 0.00 | 0.00 | 0.00 | 79 | 1013.2 |
| 20260507185529 | 17 | 151 | 4.8 | 12.9 | 0.00 | 0.00 | 0.00 | 79 | 1013.1 |
| 20260507185026 | 17 | 130 | 4.8 | 11.3 | 0.00 | 0.00 | 0.00 | 79 | 1013.3 |
| 20260507184543 | 17 | 114 | 4.8 | 11.3 | 0.00 | 0.00 | 0.00 | 79 | 1013.2 |
| 20260507184027 | 17 | 128 | 6.4 | 11.3 | 0.00 | 0.00 | 0.00 | 80 | 1013.2 |
| 20260507183527 | 17 | 111 | 1.6 | 14.5 | 0.00 | 0.00 | 0.00 | 80 | 1013.1 |
| 20260507183049 | 17 | 114 | 4.8 | 14.5 | 0.00 | 0.00 | 0.00 | 80 | 1013.1 |
| 20260507182526 | 17 | 123 | 8.0 | 14.5 | 0.00 | 0.00 | 0.00 | 80 | 1013.1 |
| 20260507182026 | 17 | 109 | 8.0 | 14.5 | 0.00 | 0.00 | 0.00 | 80 | 1013.1 |
| 20260507181543 | 17 | 109 | 8.0 | 14.5 | 0.00 | 0.00 | 0.00 | 80 | 1013.1 |
| 20260507181027 | 17 | 126 | 6.4 | 19.3 | 0.00 | 0.00 | 0.00 | 80 | 1013.1 |
| 20260507180530 | 17 | 102 | 8.0 | 19.3 | 0.00 | 0.00 | 0.00 | 81 | 1013.1 |
| 20260507180046 | 17 | 131 | 9.7 | 17.7 | 0.00 | 0.00 | 0.00 | 81 | 1013.0 |
| 20260507175527 | 18 | 98 | 8.0 | 19.3 | 0.00 | 0.00 | 0.00 | 80 | 1012.9 |
| 20260507175026 | 18 | 94 | 8.0 | 19.3 | 0.00 | 0.00 | 0.00 | 81 | 1012.9 |
| 20260507174541 | 18 | 142 | 4.8 | 17.7 | 0.00 | 0.00 | 0.00 | 81 | 1012.8 |
| 20260507174025 | 18 | 119 | 8.0 | 17.7 | 0.00 | 0.00 | 0.00 | 81 | 1012.7 |
| 20260507173529 | 18 | 91 | 9.7 | 20.9 | 0.00 | 0.00 | 0.00 | 81 | 1012.6 |
| 20260507173039 | 18 | 92 | 12.9 | 20.9 | 0.00 | 0.00 | 0.00 | 81 | 1012.6 |
| 20260507172526 | 18 | 113 | 11.3 | 20.9 | 0.00 | 0.00 | 0.00 | 81 | 1012.7 |
| 20260507172025 | 18 | 69 | 9.7 | 19.3 | 0.00 | 0.00 | 0.00 | 80 | 1012.7 |
| 20260507171541 | 18 | 80 | 11.3 | 19.3 | 0.00 | 0.00 | 0.00 | 79 | 1012.8 |
| 20260507171026 | 18 | 113 | 11.3 | 19.3 | 0.00 | 0.00 | 0.00 | 79 | 1012.7 |
| 20260507170526 | 18 | 89 | 9.7 | 19.3 | 0.00 | 0.00 | 0.00 | 78 | 1012.6 |
| 20260507170051 | 18 | 111 | 11.3 | 19.3 | 0.00 | 0.00 | 0.00 | 77 | 1012.5 |
| 20260507165527 | 18 | 89 | 11.3 | 17.7 | 0.00 | 0.00 | 0.00 | 76 | 1012.5 |
| 20260507165027 | 18 | 110 | 9.7 | 20.9 | 0.00 | 0.00 | 0.00 | 77 | 1012.7 |
| 20260507164556 | 18 | 83 | 9.7 | 20.9 | 0.00 | 0.00 | 0.00 | 76 | 1012.6 |
| 20260507164026 | 19 | 71 | 9.7 | 19.3 | 0.00 | 0.00 | 0.00 | 76 | 1012.6 |
| 20260507163531 | 19 | 92 | 6.4 | 17.7 | 0.00 | 0.00 | 0.00 | 76 | 1012.6 |
| 20260507163041 | 18 | 76 | 4.8 | 17.7 | 0.00 | 0.00 | 0.00 | 76 | 1012.6 |
| 20260507162526 | 18 | 82 | 9.7 | 19.3 | 0.00 | 0.00 | 0.00 | 76 | 1012.6 |
| 20260507162026 | 18 | 101 | 8.0 | 20.9 | 0.00 | 0.00 | 0.00 | 77 | 1012.6 |
| 20260507161542 | 18 | 117 | 14.5 | 20.9 | 0.00 | 0.00 | 0.00 | 76 | 1012.6 |
| 20260507161025 | 18 | 98 | 4.8 | 19.3 | 0.00 | 0.00 | 0.00 | 79 | 1012.5 |
| 20260507160526 | 18 | 153 | 11.3 | 19.3 | 0.00 | 0.00 | 0.00 | 79 | 1012.5 |
| 20260507160041 | 18 | 76 | 11.3 | 19.3 | 0.00 | 0.00 | 0.00 | 81 | 1012.5 |
| 20260507155524 | 18 | 89 | 11.3 | 19.3 | 0.00 | 0.00 | 0.00 | 81 | 1012.5 |
| 20260507155024 | 18 | 92 | 9.7 | 20.9 | 0.00 | 0.00 | 0.00 | 82 | 1012.6 |
| 20260507154545 | 18 | 96 | 9.7 | 20.9 | 0.00 | 0.00 | 0.00 | 82 | 1012.6 |
| 20260507154023 | 18 | 125 | 11.3 | 19.3 | 0.00 | 0.00 | 0.00 | 82 | 1012.6 |
| 20260507153524 | 18 | 70 | 11.3 | 24.1 | 0.00 | 0.00 | 0.00 | 82 | 1012.7 |
| 20260507153045 | 18 | 86 | 11.3 | 24.1 | 0.00 | 0.00 | 0.00 | 82 | 1012.6 |
| 20260507152524 | 18 | 78 | 12.9 | 24.1 | 0.00 | 0.00 | 0.00 | 81 | 1012.6 |
| 20260507152024 | 18 | 76 | 11.3 | 22.5 | 0.00 | 0.00 | 0.00 | 81 | 1012.6 |
| 20260507151543 | 18 | 109 | 12.9 | 22.5 | 0.00 | 0.00 | 0.00 | 80 | 1012.5 |
| 20260507151023 | 18 | 81 | 14.5 | 20.9 | 0.00 | 0.00 | 0.00 | 79 | 1012.6 |
| 20260507150524 | 19 | 114 | 11.3 | 20.9 | 0.00 | 0.00 | 0.00 | 80 | 1012.7 |
| 20260507150041 | 19 | 98 | 11.3 | 20.9 | 0.00 | 0.00 | 0.00 | 79 | 1012.7 |
| 20260507145523 | 19 | 93 | 12.9 | 20.9 | 0.00 | 0.00 | 0.00 | 79 | 1012.7 |
| 20260507145026 | 19 | 99 | 11.3 | 20.9 | 0.00 | 0.00 | 0.00 | 79 | 1012.7 |
| 20260507144543 | 19 | 67 | 11.3 | 20.9 | 0.00 | 0.00 | 0.00 | 78 | 1012.7 |
| 20260507144026 | 19 | 51 | 11.3 | 19.3 | 0.00 | 0.00 | 0.00 | 77 | 1012.7 |
| 20260507143526 | 19 | 58 | 11.3 | 20.9 | 0.00 | 0.00 | 0.00 | 75 | 1012.8 |
| 20260507143041 | 19 | 62 | 14.5 | 20.9 | 0.00 | 0.00 | 0.00 | 76 | 1012.7 |
| 20260507142523 | 19 | 36 | 9.7 | 19.3 | 0.00 | 0.00 | 0.00 | 76 | 1012.7 |
| 20260507142024 | 19 | 49 | 12.9 | 19.3 | 0.00 | 0.00 | 0.00 | 76 | 1012.8 |
| 20260507141542 | 19 | 91 | 8.0 | 19.3 | 0.00 | 0.00 | 0.00 | 77 | 1012.6 |
| 20260507141026 | 19 | 60 | 8.0 | 19.3 | 0.00 | 0.00 | 0.00 | 77 | 1012.6 |
| 20260507140525 | 19 | 47 | 9.7 | 20.9 | 0.00 | 0.00 | 0.00 | 76 | 1012.7 |
| 20260507140046 | 20 | 76 | 9.7 | 20.9 | 0.00 | 0.00 | 0.00 | 77 | 1012.7 |
| 20260507135524 | 20 | 47 | 6.4 | 20.9 | 0.00 | 0.00 | 0.00 | 76 | 1012.7 |
| 20260507135025 | 19 | 44 | 9.7 | 20.9 | 0.00 | 0.00 | 0.00 | 76 | 1012.7 |
| 20260507134543 | 19 | 53 | 8.0 | 17.7 | 0.00 | 0.00 | 0.00 | 76 | 1012.8 |
| 20260507134023 | 19 | 84 | 6.4 | 17.7 | 0.00 | 0.00 | 0.00 | 76 | 1012.7 |
| 20260507133525 | 19 | 49 | 8.0 | 17.7 | 0.00 | 0.00 | 0.00 | 75 | 1012.8 |
| 20260507133059 | 19 | 85 | 9.7 | 17.7 | 0.00 | 0.00 | 0.00 | 75 | 1012.8 |
| 20260507132528 | 19 | 94 | 9.7 | 17.7 | 0.00 | 0.00 | 0.00 | 74 | 1012.8 |
| 20260507132023 | 19 | 92 | 9.7 | 19.3 | 0.00 | 0.00 | 0.00 | 73 | 1012.9 |
| 20260507131549 | 19 | 75 | 9.7 | 22.5 | 0.00 | 0.00 | 0.00 | 72 | 1012.9 |
| 20260507131028 | 19 | 60 | 9.7 | 22.5 | 0.00 | 0.00 | 0.00 | 70 | 1012.9 |
| 20260507130523 | 19 | 62 | 9.7 | 22.5 | 0.00 | 0.00 | 0.00 | 69 | 1013.0 |
| 20260507130054 | 19 | 44 | 8.0 | 20.9 | 0.00 | 0.00 | 0.00 | 68 | 1013.0 |
| 20260507125527 | 19 | 58 | 9.7 | 25.7 | 0.00 | 0.00 | 0.00 | 67 | 1013.1 |
| 20260507125026 | 19 | 34 | 12.9 | 25.7 | 0.00 | 0.00 | 0.00 | 67 | 1013.1 |
| 20260507124538 | 19 | 63 | 12.9 | 20.9 | 0.00 | 0.00 | 0.00 | 65 | 1013.1 |
| 20260507124026 | 18 | 46 | 9.7 | 24.1 | 0.00 | 0.00 | 0.00 | 67 | 1013.1 |
| 20260507123526 | 18 | 70 | 11.3 | 24.1 | 0.00 | 0.00 | 0.00 | 67 | 1013.0 |
| 20260507123046 | 18 | 57 | 14.5 | 24.1 | 0.00 | 0.00 | 0.00 | 67 | 1013.0 |
| 20260507122526 | 19 | 78 | 8.0 | 19.3 | 0.00 | 0.00 | 0.00 | 68 | 1013.1 |
| 20260507122028 | 18 | 64 | 8.0 | 19.3 | 0.00 | 0.00 | 0.00 | 69 | 1013.0 |
| 20260507121547 | 18 | 36 | 8.0 | 19.3 | 0.00 | 0.00 | 0.00 | 68 | 1013.0 |
| 20260507121026 | 18 | 355 | 8.0 | 20.9 | 0.00 | 0.00 | 0.00 | 68 | 1013.1 |
| 20260507120525 | 18 | 76 | 11.3 | 20.9 | 0.00 | 0.00 | 0.00 | 68 | 1013.1 |
| 20260507120055 | 19 | 74 | 9.7 | 20.9 | 0.00 | 0.00 | 0.00 | 67 | 1013.1 |
| 20260507115526 | 19 | 26 | 8.0 | 14.5 | 0.00 | 0.00 | 0.00 | 66 | 1013.1 |
| 20260507115025 | 19 | 317 | 4.8 | 19.3 | 0.00 | 0.00 | 0.00 | 67 | 1013.1 |
| 20260507114621 | 19 | 25 | 6.4 | 20.9 | 0.00 | 0.00 | 0.00 | 68 | 1013.2 |
| 20260507114025 | 19 | 38 | 8.0 | 20.9 | 0.00 | 0.00 | 0.00 | 67 | 1013.1 |
| 20260507113527 | 20 | 36 | 8.0 | 22.5 | 0.00 | 0.00 | 0.00 | 68 | 1013.2 |
| 20260507113041 | 19 | 303 | 4.8 | 22.5 | 0.00 | 0.00 | 0.00 | 69 | 1013.1 |
| 20260507112529 | 19 | 27 | 6.4 | 22.5 | 0.00 | 0.00 | 0.00 | 68 | 1013.2 |
| 20260507112026 | 18 | 5 | 9.7 | 22.5 | 0.00 | 0.00 | 0.00 | 69 | 1013.2 |
| 20260507111540 | 18 | 35 | 11.3 | 20.9 | 0.00 | 0.00 | 0.00 | 69 | 1013.2 |
| 20260507111026 | 19 | 9 | 9.7 | 20.9 | 0.00 | 0.00 | 0.00 | 70 | 1013.1 |
| 20260507110526 | 19 | 310 | 6.4 | 20.9 | 0.00 | 0.00 | 0.00 | 72 | 1013.2 |
| 20260507110046 | 19 | 57 | 8.0 | 22.5 | 0.00 | 0.00 | 0.00 | 73 | 1013.1 |
| 20260507105526 | 19 | 39 | 12.9 | 22.5 | 0.00 | 0.00 | 0.00 | 72 | 1013.2 |
| 20260507105030 | 19 | 318 | 11.3 | 20.9 | 0.00 | 0.00 | 0.00 | 74 | 1013.1 |
| 20260507104542 | 19 | 28 | 11.3 | 19.3 | 0.00 | 0.00 | 0.00 | 73 | 1013.3 |
| 20260507104026 | 20 | 338 | 8.0 | 20.9 | 0.00 | 0.00 | 0.00 | 73 | 1013.2 |
| 20260507103525 | 20 | 44 | 11.3 | 20.9 | 0.00 | 0.00 | 0.00 | 72 | 1013.3 |
| 20260507103042 | 20 | 13 | 9.7 | 20.9 | 0.00 | 0.00 | 0.00 | 70 | 1013.2 |
| 20260507102526 | 20 | 41 | 9.7 | 20.9 | 0.00 | 0.00 | 0.00 | 69 | 1013.2 |
| 20260507102026 | 20 | 316 | 11.3 | 20.9 | 0.00 | 0.00 | 0.00 | 67 | 1013.2 |
| 20260507101545 | 22 | 15 | 8.0 | 17.7 | 0.00 | 0.00 | 0.00 | 63 | 1013.1 |
| 20260507101025 | 22 | 320 | 3.2 | 14.5 | 0.00 | 0.00 | 0.00 | 52 | 1013.1 |
| 20260507100526 | 22 | 247 | 6.4 | 14.5 | 0.00 | 0.00 | 0.00 | 52 | 1013.0 |
| 20260507100041 | 22 | 288 | 4.8 | 12.9 | 0.00 | 0.00 | 0.00 | 55 | 1013.1 |
| 20260507095526 | 21 | 287 | 3.2 | 16.1 | 0.00 | 0.00 | 0.00 | 55 | 1013.1 |
| 20260507095027 | 22 | 242 | 6.4 | 17.7 | 0.00 | 0.00 | 0.00 | 53 | 1013.0 |
| 20260507094540 | 22 | 243 | 9.7 | 17.7 | 0.00 | 0.00 | 0.00 | 54 | 1013.1 |
| 20260507094026 | 21 | 171 | 3.2 | 12.9 | 0.00 | 0.00 | 0.00 | 56 | 1013.0 |
| 20260507093526 | 21 | 257 | 3.2 | 14.5 | 0.00 | 0.00 | 0.00 | 55 | 1013.1 |
| 20260507093048 | 21 | 315 | 6.4 | 14.5 | 0.00 | 0.00 | 0.00 | 55 | 1013.1 |
| 20260507092526 | 21 | 302 | 4.8 | 16.1 | 0.00 | 0.00 | 0.00 | 56 | 1013.0 |
| 20260507092025 | 21 | 222 | 6.4 | 16.1 | 0.00 | 0.00 | 0.00 | 55 | 1013.0 |
| 20260507091546 | 21 | 242 | 3.2 | 19.3 | 0.00 | 0.00 | 0.00 | 58 | 1013.1 |
| 20260507091026 | 21 | 250 | 3.2 | 19.3 | 0.00 | 0.00 | 0.00 | 60 | 1013.1 |
| 20260507090528 | 21 | 189 | 9.7 | 19.3 | 0.00 | 0.00 | 0.00 | 58 | 1013.1 |
| 20260507090042 | 21 | 184 | 4.8 | 16.1 | 0.00 | 0.00 | 0.00 | 60 | 1013.1 |
| 20260507085525 | 20 | 186 | 6.4 | 16.1 | 0.00 | 0.00 | 0.00 | 61 | 1013.1 |
| 20260507085026 | 20 | 213 | 6.4 | 17.7 | 0.00 | 0.00 | 0.00 | 61 | 1013.1 |
| 20260507084553 | 20 | 174 | 8.0 | 17.7 | 0.00 | 0.00 | 0.00 | 60 | 1013.1 |
| 20260507084025 | 20 | 196 | 4.8 | 17.7 | 0.00 | 0.00 | 0.00 | 61 | 1013.0 |
| 20260507083526 | 20 | 285 | 4.8 | 20.9 | 0.00 | 0.00 | 0.00 | 63 | 1013.1 |
| 20260507083042 | 20 | 256 | 6.4 | 20.9 | 0.00 | 0.00 | 0.00 | 62 | 1013.2 |
| 20260507082526 | 20 | 205 | 8.0 | 20.9 | 0.00 | 0.00 | 0.00 | 62 | 1013.0 |
| 20260507082026 | 20 | 181 | 6.4 | 19.3 | 0.00 | 0.00 | 0.00 | 63 | 1012.8 |
| 20260507081547 | 20 | 177 | 4.8 | 20.9 | 0.00 | 0.00 | 0.00 | 64 | 1012.8 |
| 20260507081026 | 20 | 223 | 9.7 | 24.1 | 0.00 | 0.00 | 0.00 | 63 | 1012.8 |
| 20260507080527 | 20 | 178 | 8.0 | 24.1 | 0.00 | 0.00 | 0.00 | 62 | 1012.8 |
| 20260507080053 | 20 | 238 | 11.3 | 24.1 | 0.00 | 0.00 | 0.00 | 62 | 1012.8 |
| 20260507075526 | 20 | 255 | 9.7 | 20.9 | 0.00 | 0.00 | 0.00 | 63 | 1012.8 |
| 20260507075026 | 20 | 180 | 9.7 | 22.5 | 0.00 | 0.00 | 0.00 | 63 | 1012.8 |
| 20260507074543 | 20 | 179 | 9.7 | 24.1 | 0.00 | 0.00 | 0.00 | 63 | 1012.8 |
| 20260507074025 | 19 | 198 | 8.0 | 24.1 | 0.00 | 0.00 | 0.00 | 65 | 1013.0 |
| 20260507073526 | 19 | 180 | 6.4 | 16.1 | 0.00 | 0.00 | 0.00 | 66 | 1013.0 |
| 20260507073048 | 19 | 194 | 6.4 | 16.1 | 0.00 | 0.00 | 0.00 | 66 | 1013.0 |
| 20260507072528 | 19 | 198 | 4.8 | 14.5 | 0.00 | 0.00 | 0.00 | 67 | 1013.0 |
| 20260507072025 | 19 | 196 | 4.8 | 16.1 | 0.00 | 0.00 | 0.00 | 68 | 1013.1 |
| 20260507071541 | 19 | 225 | 6.4 | 16.1 | 0.00 | 0.00 | 0.00 | 67 | 1013.1 |
| 20260507071025 | 19 | 181 | 6.4 | 16.1 | 0.00 | 0.00 | 0.00 | 68 | 1013.1 |
| 20260507070527 | 19 | 189 | 6.4 | 17.7 | 0.00 | 0.00 | 0.00 | 69 | 1012.9 |
| 20260507070041 | 18 | 329 | 6.4 | 17.7 | 0.00 | 0.00 | 0.00 | 68 | 1012.9 |
| 20260507065527 | 18 | 188 | 6.4 | 19.3 | 0.00 | 0.00 | 0.00 | 69 | 1012.8 |
| 20260507065027 | 18 | 252 | 6.4 | 19.3 | 0.00 | 0.00 | 0.00 | 69 | 1012.8 |
| 20260507064544 | 18 | 216 | 3.2 | 16.1 | 0.00 | 0.00 | 0.00 | 71 | 1012.8 |
| 20260507064026 | 18 | 264 | 6.4 | 17.7 | 0.00 | 0.00 | 0.00 | 72 | 1012.7 |
| 20260507063526 | 17 | 258 | 6.4 | 17.7 | 0.00 | 0.00 | 0.00 | 74 | 1012.7 |
| 20260507063045 | 17 | 259 | 6.4 | 17.7 | 0.00 | 0.00 | 0.00 | 76 | 1012.6 |
| 20260507062526 | 17 | 240 | 4.8 | 16.1 | 0.00 | 0.00 | 0.00 | 76 | 1012.5 |
| 20260507062026 | 17 | 252 | 3.2 | 14.5 | 0.00 | 0.00 | 0.00 | 76 | 1012.5 |
| 20260507061542 | 17 | 223 | 3.2 | 14.5 | 0.00 | 0.00 | 0.00 | 76 | 1012.6 |
| 20260507061027 | 17 | 254 | 4.8 | 14.5 | 0.00 | 0.00 | 0.00 | 76 | 1012.5 |
| 20260507060525 | 17 | 243 | 4.8 | 12.9 | 0.00 | 0.00 | 0.00 | 77 | 1012.6 |
| 20260507060046 | 17 | 231 | 3.2 | 12.9 | 0.00 | 0.00 | 0.00 | 78 | 1012.5 |
| 20260507055527 | 16 | 240 | 4.8 | 12.9 | 0.00 | 0.03 | 0.00 | 79 | 1012.5 |
| 20260507055029 | 16 | 279 | 4.8 | 12.9 | 0.00 | 0.03 | 0.00 | 80 | 1012.5 |
| 20260507054541 | 16 | 0 | 3.2 | 12.9 | 0.00 | 0.03 | 0.00 | 80 | 1012.5 |
| 20260507054026 | 16 | 210 | 3.2 | 11.3 | 0.00 | 0.03 | 0.00 | 80 | 1012.5 |
| 20260507053526 | 16 | 252 | 1.6 | 9.7 | 0.00 | 0.03 | 0.00 | 80 | 1012.5 |
| 20260507053042 | 16 | 232 | 1.6 | 11.3 | 0.00 | 0.03 | 0.00 | 81 | 1012.4 |
| 20260507052526 | 16 | 192 | 6.4 | 11.3 | 0.00 | 0.03 | 0.00 | 82 | 1012.3 |
| 20260507052026 | 16 | 0 | 3.2 | 12.9 | 0.00 | 0.03 | 0.00 | 83 | 1012.2 |
| 20260507051540 | 16 | 237 | 1.6 | 12.9 | 0.00 | 0.03 | 0.00 | 84 | 1012.3 |
| 20260507051025 | 16 | 209 | 4.8 | 12.9 | 0.00 | 0.03 | 0.00 | 84 | 1012.1 |
| 20260507050527 | 16 | 200 | 4.8 | 9.7 | 0.00 | 0.03 | 0.00 | 85 | 1012.1 |
| 20260507050046 | 16 | 208 | 3.2 | 9.7 | 0.00 | 0.03 | 0.00 | 86 | 1012.1 |
| 20260507045526 | 15 | 209 | 1.6 | 9.7 | 0.00 | 0.13 | 0.00 | 86 | 1012.1 |
| 20260507045026 | 15 | 221 | 1.6 | 4.8 | 0.00 | 0.13 | 0.00 | 87 | 1012.1 |
| 20260507044542 | 15 | 224 | 1.6 | 4.8 | 0.00 | 0.13 | 0.00 | 87 | 1012.1 |
| 20260507044025 | 15 | 225 | 0.0 | 4.8 | 0.00 | 0.13 | 0.00 | 87 | 1012.0 |
| 20260507043526 | 15 | 225 | 0.0 | 4.8 | 0.00 | 0.13 | 0.00 | 87 | 1012.0 |
| 20260507043041 | 15 | 0 | 1.6 | 6.4 | 0.00 | 0.13 | 0.00 | 87 | 1012.0 |
| 20260507042526 | 15 | 225 | 1.6 | 6.4 | 0.00 | 0.13 | 0.00 | 87 | 1012.0 |
| 20260507042025 | 15 | 225 | 3.2 | 6.4 | 0.00 | 0.13 | 0.00 | 88 | 1011.9 |
| 20260507041540 | 15 | 231 | 1.6 | 4.8 | 0.00 | 0.13 | 0.00 | 88 | 1011.9 |
| 20260507041026 | 15 | 234 | 0.0 | 4.8 | 0.00 | 0.13 | 0.00 | 88 | 1011.9 |
| 20260507040526 | 16 | 0 | 0.0 | 4.8 | 0.00 | 0.13 | 0.00 | 88 | 1011.8 |
| 20260507040043 | 16 | 235 | 3.2 | 4.8 | 0.00 | 0.13 | 0.00 | 88 | 1011.9 |
| 20260507035526 | 16 | 235 | 0.0 | 3.2 | 0.00 | 0.13 | 0.00 | 87 | 1011.8 |
| 20260507035026 | 16 | 235 | 1.6 | 3.2 | 0.00 | 0.13 | 0.00 | 87 | 1011.8 |
| 20260507034551 | 16 | 235 | 0.0 | 4.8 | 0.00 | 0.13 | 0.00 | 87 | 1011.8 |
| 20260507034026 | 16 | 0 | 1.6 | 4.8 | 0.00 | 0.13 | 0.00 | 87 | 1011.8 |
| 20260507033526 | 16 | 0 | 1.6 | 4.8 | 0.00 | 0.13 | 0.00 | 87 | 1011.8 |
| 20260507033046 | 16 | 0 | 0.0 | 0.0 | 0.00 | 0.13 | 0.00 | 87 | 1011.7 |
| 20260507032524 | 16 | 0 | 0.0 | 0.0 | 0.00 | 0.13 | 0.00 | 86 | 1011.7 |
| 20260507032025 | 16 | 0 | 0.0 | 0.0 | 0.00 | 0.13 | 0.00 | 86 | 1011.6 |
| 20260507031541 | 16 | 0 | 0.0 | 1.6 | 0.00 | 0.13 | 0.00 | 86 | 1011.6 |
| 20260507031026 | 16 | 0 | 0.0 | 1.6 | 0.00 | 0.13 | 0.00 | 86 | 1011.7 |
| 20260507030526 | 16 | 0 | 0.0 | 3.2 | 0.00 | 0.13 | 0.00 | 86 | 1011.6 |
| 20260507030043 | 16 | 0 | 0.0 | 3.2 | 0.00 | 0.13 | 0.00 | 85 | 1011.5 |
| 20260507025525 | 16 | 234 | 0.0 | 3.2 | 0.00 | 0.13 | 0.00 | 85 | 1011.5 |
| 20260507025028 | 16 | 0 | 0.0 | 1.6 | 0.00 | 0.13 | 0.00 | 85 | 1011.4 |
| 20260507024540 | 16 | 0 | 0.0 | 4.8 | 0.00 | 0.13 | 0.00 | 85 | 1011.4 |
| 20260507024025 | 16 | 0 | 0.0 | 6.4 | 0.00 | 0.13 | 0.00 | 85 | 1011.4 |
| 20260507023525 | 16 | 234 | 1.6 | 6.4 | 0.00 | 0.13 | 0.00 | 85 | 1011.4 |
| 20260507023046 | 16 | 232 | 0.0 | 4.8 | 0.00 | 0.13 | 0.00 | 84 | 1011.5 |
| 20260507022525 | 16 | 0 | 1.6 | 4.8 | 0.00 | 0.13 | 0.00 | 84 | 1011.4 |
| 20260507022025 | 16 | 232 | 1.6 | 6.4 | 0.00 | 0.13 | 0.00 | 84 | 1011.4 |
| 20260507021547 | 16 | 0 | 1.6 | 6.4 | 0.00 | 0.10 | 0.00 | 83 | 1011.4 |
| 20260507021026 | 16 | 226 | 3.2 | 6.4 | 0.00 | 0.10 | 0.00 | 83 | 1011.3 |
| 20260507020525 | 16 | 229 | 1.6 | 4.8 | 0.00 | 0.10 | 0.00 | 82 | 1011.4 |
| 20260507020104 | 16 | 228 | 0.0 | 4.8 | 0.00 | 0.10 | 0.00 | 82 | 1011.4 |
| 20260507015526 | 16 | 229 | 1.6 | 4.8 | 0.00 | 0.10 | 0.00 | 82 | 1011.6 |
| 20260507015026 | 16 | 232 | 0.0 | 8.0 | 0.00 | 0.10 | 0.00 | 81 | 1011.7 |
| 20260507014546 | 16 | 232 | 1.6 | 8.0 | 0.00 | 0.10 | 0.00 | 81 | 1011.7 |
| 20260507014026 | 17 | 0 | 3.2 | 9.7 | 0.00 | 0.10 | 0.00 | 80 | 1011.6 |
| 20260507013526 | 17 | 254 | 1.6 | 9.7 | 0.00 | 0.10 | 0.00 | 80 | 1011.7 |
| 20260507013052 | 17 | 257 | 3.2 | 9.7 | 0.00 | 0.10 | 0.00 | 79 | 1011.6 |
| 20260507012526 | 17 | 276 | 3.2 | 16.1 | 0.00 | 0.10 | 0.00 | 79 | 1011.7 |
| 20260507012026 | 17 | 276 | 4.8 | 16.1 | 0.00 | 0.10 | 0.00 | 79 | 1011.5 |
| 20260507011541 | 17 | 247 | 4.8 | 14.5 | 0.00 | 0.10 | 0.00 | 79 | 1011.5 |
| 20260507011025 | 17 | 245 | 6.4 | 16.1 | 0.00 | 0.10 | 0.00 | 79 | 1011.4 |
| 20260507010526 | 17 | 281 | 6.4 | 16.1 | 0.00 | 0.10 | 0.00 | 79 | 1011.5 |
| 20260507010040 | 17 | 284 | 3.2 | 12.9 | 0.00 | 0.10 | 0.00 | 79 | 1011.4 |
| 20260507005525 | 17 | 263 | 3.2 | 11.3 | 0.00 | 0.10 | 0.00 | 79 | 1011.5 |
| 20260507005025 | 17 | 291 | 1.6 | 11.3 | 0.00 | 0.10 | 0.00 | 78 | 1011.4 |
| 20260507004548 | 17 | 286 | 1.6 | 4.8 | 0.00 | 0.10 | 0.00 | 78 | 1011.4 |
| 20260507004025 | 17 | 286 | 1.6 | 4.8 | 0.00 | 0.10 | 0.00 | 77 | 1011.4 |
| 20260507003525 | 17 | 286 | 0.0 | 4.8 | 0.00 | 0.10 | 0.00 | 77 | 1011.3 |
| 20260507003048 | 17 | 0 | 0.0 | 3.2 | 0.00 | 0.10 | 0.00 | 77 | 1011.3 |
| 20260507002526 | 17 | 0 | 0.0 | 3.2 | 0.00 | 0.10 | 0.00 | 77 | 1011.3 |
| 20260507002026 | 17 | 0 | 1.6 | 3.2 | 0.00 | 0.10 | 0.00 | 77 | 1011.5 |
| 20260507001546 | 17 | 0 | 1.6 | 4.8 | 0.00 | 0.10 | 0.00 | 77 | 1011.5 |
| 20260507001026 | 17 | 0 | 1.6 | 4.8 | 0.00 | 0.10 | 0.00 | 77 | 1011.6 |
| 20260507000526 | 17 | 0 | 0.0 | 3.2 | 0.00 | 0.10 | 0.00 | 76 | 1011.6 |
| 20260507000042 | 17 | 286 | 0.0 | 3.2 | 0.00 | 0.10 | 0.00 | 76 | 1011.7 |
| 20260506235528 | 17 | 0 | 1.6 | 4.8 | 0.00 | 0.10 | 0.00 | 76 | 1011.7 |
| 20260506235025 | 17 | 0 | 1.6 | 4.8 | 0.00 | 0.10 | 0.00 | 76 | 1011.5 |
| 20260506234544 | 17 | 281 | 0.0 | 3.2 | 0.00 | 0.10 | 0.00 | 75 | 1011.6 |
| 20260506234025 | 17 | 281 | 1.6 | 4.8 | 0.00 | 0.10 | 0.00 | 75 | 1011.5 |
| 20260506233527 | 17 | 281 | 1.6 | 4.8 | 0.00 | 0.10 | 0.00 | 75 | 1011.6 |
| 20260506233102 | 17 | 281 | 1.6 | 4.8 | 0.00 | 0.10 | 0.00 | 74 | 1011.5 |
| 20260506232526 | 18 | 0 | 0.0 | 4.8 | 0.00 | 0.10 | 0.00 | 74 | 1011.5 |
| 20260506232026 | 18 | 0 | 0.0 | 6.4 | 0.00 | 0.10 | 0.00 | 74 | 1011.5 |
| 20260506231538 | 18 | 0 | 0.0 | 6.4 | 0.00 | 0.10 | 0.00 | 74 | 1011.5 |
| 20260506231026 | 18 | 283 | 1.6 | 6.4 | 0.00 | 0.10 | 0.00 | 74 | 1011.6 |
| 20260506230526 | 18 | 282 | 1.6 | 11.3 | 0.00 | 0.10 | 0.00 | 74 | 1011.6 |
| 20260506230049 | 18 | 0 | 0.0 | 11.3 | 0.00 | 0.10 | 0.00 | 74 | 1011.6 |
| 20260506225526 | 18 | 264 | 3.2 | 12.9 | 0.00 | 0.36 | 0.00 | 74 | 1011.6 |
| 20260506225027 | 18 | 0 | 3.2 | 12.9 | 0.00 | 0.36 | 0.00 | 74 | 1011.4 |
| 20260506224543 | 18 | 204 | 0.0 | 8.0 | 0.00 | 0.36 | 0.00 | 74 | 1011.5 |
| 20260506224029 | 18 | 0 | 1.6 | 8.0 | 0.00 | 0.36 | 0.00 | 74 | 1011.6 |
| 20260506223525 | 18 | 204 | 0.0 | 8.0 | 0.00 | 0.36 | 0.00 | 73 | 1011.5 |
| 20260506223045 | 18 | 204 | 1.6 | 8.0 | 0.00 | 0.36 | 0.00 | 74 | 1011.5 |